Weather observations for the past three days for
Decatur Airport
Metric (Imperial)
Date Time (cdt) Wind (kph) Vis. (km) Weather Sky Cond. Temperature (ºC) Relative Humidity Wind Chill (°C) Heat Index (°C) Pressure Precipitation (cm)
Air Dwpt 6 hour altimeter (cm) sea level (mb) 1 hr 3 hr 6 hr
Max. Min.
03 17:54 SW 13 16.09 Fair CLR 34.4 20.6 44% 37 76 1012.6
03 16:54 SW 20 16.09 Fair CLR 35.6 20 40% 38 76 1012.4
03 15:54 SW 15 16.09 Fair CLR 36.1 21.1 42% 40 76.02 1012.8
03 14:54 SW 17 16.09 Fair CLR 35.6 20.6 41% 39 76.07 1013.4
03 13:54 SW 9 16.09 Fair CLR 35.6 21.1 43% 39 76.12 1014.0
03 12:54 W 15 16.09 Fair CLR 34.4 21.1 34.4 23.9 46% 38 76.17 1014.5
03 11:54 SW 17 16.09 Partly Cloudy SCT100 32.8 22.2 54% 37 76.2 1015.1
03 10:54 SW 15 16.09 Partly Cloudy SCT095 SCT120 31.7 22.2 57% 36 76.2 1015.3
03 09:54 SW 20 16.09 Mostly Cloudy FEW085 BKN120 30.6 22.2 61% 34 76.2 1015.2
03 08:54 SW 19 16.09 Mostly Cloudy BKN120 28.3 21.7 67% 31 76.2 1015.2
03 07:54 SW 13 16.09 Fair CLR 26.1 21.7 77% 28 76.2 1015.3
03 06:54 S 9 16.09 Fair CLR 23.9 20.6 26.7 23.3 82% 24 76.2 1015.1
03 05:54 S 6 16.09 Fair CLR 24.4 20.6 79% 25 76.17 1014.8
03 04:54 SW 9 16.09 Fair CLR 25 20.6 77% 26 76.17 1014.6
03 03:54 S 11 16.09 Fair CLR 25 20.6 77% 26 76.17 1014.6
03 02:54 S 7 16.09 Fair CLR 24.4 20.6 79% 25 76.17 1014.6
03 01:54 SW 9 16.09 Fair CLR 25.6 20.6 74% 27 76.17 1014.7
03 00:54 SW 15 16.09 Fair CLR 26.7 20.6 32.2 26.7 69% 28 76.17 1014.6
02 23:54 SW 13 16.09 Fair CLR 27.2 20.6 67% 29 76.15 1014.3
02 22:54 S 11 16.09 Fair CLR 27.2 20.6 67% 29 76.15 1014.4
02 21:54 SW 11 16.09 Fair CLR 27.8 20.6 65% 30 76.12 1014.2
02 20:54 S 9 16.09 Fair CLR 29.4 21.1 61% 32 76.12 1014.1
02 19:54 S 11 16.09 Fair CLR 29.4 21.7 63% 32 76.07 1013.6
02 18:54 SW 9 16.09 Fair CLR 32.2 22.2 36.1 32.2 56% 36 76.07 1013.6
02 17:54 SW 15 16.09 Fair CLR 35 20.6 43% 38 76.1 1013.7
02 16:54 SW 17 16.09 Fair CLR 35.6 20 40% 38 76.1 1013.7
02 15:54 SW 19 16.09 Fair CLR 36.1 20 39% 39 76.12 1014.0
02 14:54 S 20 16.09 Fair CLR 36.1 20.6 40% 39 76.17 1014.6
02 13:54 W 19 G 31 16.09 Fair CLR 36.1 20.6 40% 39 76.2 1015.0
02 12:54 W 19 G 31 16.09 Fair CLR 35 21.1 35 24.4 44% 39 76.23 1015.4
02 11:54 W 20 16.09 Fair CLR 33.9 21.1 47% 37 76.28 1016.0
02 10:54 SW 20 16.09 Fair CLR 32.2 21.7 54% 36 76.28 1016.3
02 09:54 SW 24 16.09 Fair CLR 30.6 21.1 57% 33 76.28 1016.1
02 08:54 SW 19 16.09 Fair CLR 28.9 21.7 65% 32 76.28 1016.1
02 07:54 SW 17 16.09 Fair CLR 26.1 21.1 74% 28 76.3 1016.4
02 06:54 SW 11 16.09 Fair CLR 24.4 21.1 25.6 24.4 82% 25 76.28 1016.2
02 05:54 SW 13 16.09 Fair CLR 24.4 21.1 82% 25 76.25 1015.9
02 04:54 SW 11 16.09 Fair CLR 24.4 20.6 79% 25 76.25 1015.8
02 03:54 S 11 16.09 Fair CLR 24.4 20.6 79% 25 76.23 1015.4
02 02:54 SW 9 16.09 Fair CLR 25 20 74% 26 76.23 1015.2
02 01:54 SW 11 16.09 Fair CLR 25 20 74% 26 76.25 1015.8
02 00:54 SW 11 16.09 Fair CLR 25.6 20 32.2 25.6 71% 27 76.25 1015.7
01 23:54 SW 13 16.09 Fair CLR 27.2 20 65% 29 76.23 1015.5
01 22:54 S 7 16.09 Fair CLR 27.2 20.6 67% 29 76.23 1015.5
01 21:54 S 6 16.09 Fair CLR 27.8 21.1 67% 30 76.23 1015.6
01 20:54 S 7 16.09 Fair CLR 27.8 21.7 69% 30 76.2 1015.1
01 19:54 S 9 16.09 Fair CLR 29.4 22.2 65% 33 76.15 1014.6
01 18:54 SE 9 16.09 Fair CLR 32.2 23.3 35.6 32.2 59% 37 76.17 1014.7
01 17:54 SW 6 16.09 Fair CLR 35 20.6 43% 38 76.17 1014.8
01 16:54 SW 11 16.09 Fair CLR 35.6 20.6 41% 39 76.17 1014.8
01 15:54 W 11 16.09 Fair CLR 35.6 20 40% 38 76.17 1015.0
01 14:54 W 13 16.09 Fair CLR 35.6 20.6 41% 39 76.2 1015.3
01 13:54 SW 15 16.09 Fair CLR 34.4 21.1 46% 38 76.25 1015.9
01 12:54 SW 13 16.09 Fair CLR 33.3 21.1 33.3 23.3 49% 37 76.3 1016.4
01 11:54 SW 17 16.09 Fair CLR 32.8 21.7 52% 36 76.33 1016.7
01 10:54 W 17 16.09 Fair CLR 31.1 21.1 55% 34 76.33 1017.0
01 09:54 W 20 16.09 Fair CLR 29.4 20.6 59% 32 76.33 1016.8
01 08:54 SW 20 16.09 Fair CLR 27.2 20.6 67% 29 76.33 1016.7
01 07:54 SW 15 16.09 Fair CLR 25 20.6 77% 26 76.33 1016.7
01 06:54 SW 17 16.09 Fair CLR 23.3 20 25.6 23.3 82% 76.28 1016.3
01 05:54 SW 17 16.09 Fair CLR 23.9 20 79% 24 76.25 1015.8
01 04:54 SW 15 16.09 Fair CLR 24.4 20.6 79% 25 76.25 1015.7
01 03:54 SW 15 16.09 Fair CLR 23.9 20 79% 24 76.23 1015.5
01 02:54 SW 13 16.09 Fair CLR 24.4 20 77% 25 76.23 1015.5
01 01:54 SW 17 16.09 Fair CLR 25 19.4 71% 26 76.23 1015.5
01 00:54 SW 15 16.09 Fair CLR 25.6 19.4 31.1 25.6 69% 27 76.23 1015.6
31 23:54 SW 19 16.09 Fair CLR 26.1 20 69% 27 76.23 1015.5
31 22:54 S 19 16.09 Fair CLR 27.2 20 65% 29 76.23 1015.4
31 21:54 S 15 16.09 Fair CLR 27.8 20 63% 29 76.23 1015.3
31 20:54 S 15 16.09 Fair CLR 28.9 20 59% 31 76.17 1014.9
31 19:54 S 15 16.09 Fair CLR 29.4 20.6 59% 32 76.12 1014.2
31 18:54 S 17 16.09 Fair CLR 31.1 20.6 35 31.1 54% 34 76.12 1014.2
Date Time (cdt) Wind (kph) Vis. (km) Weather Sky Cond. Air Dwpt Max. Min. Relative Humidity Wind Chill (°C) Heat Index (°C) altimeter (cm) sea level (mb) 1 hr 3 hr 6 hr
6 hour
Temperature (ºC) Pressure Precipitation (cm)